Location: Los Angeles Air Force Base
(33.9150°N, 118.3749°W)
Time: 02:46:55
(UTC+00:00)

Daily predictions for brighter satellites

Satellite Brightness Start Highest point End
(mag) Time Altitude Azimuth Time Altitude Azimuth Time Altitude Azimuth
CSL-04 Rocket 4.0 03:13:12 10° SE 03:18:17 49° ENE 03:23:24 10° N
Cosmos 1400 Rocket 2.8 03:15:26 10° N 03:19:20 87° E 03:23:15 10° S
Cosmos 1544 4.1 03:16:53 10° NNE 03:19:55 27° E 03:22:57 10° SE
CENTAUR R/B 3.5 03:14:47 10° NNW 03:23:18 69° ENE 03:32:20 10° SE
Cosmos 2227 Rocket 3.7 03:19:21 10° N 03:23:37 21° ENE 03:27:52 10° ESE
Cosmos 1151 Rocket 3.2 03:21:28 10° S 03:25:36 51° E 03:29:45 10° NNE
deb Chang Zheng 4 3.5 03:22:43 10° SSE 03:26:51 85° W 03:30:59 10° NNW
Cosmos 1980 Rocket 3.5 03:23:24 10° SE 03:27:17 19° E 03:31:11 10° NE
COSMOS 2487 2.9 03:24:57 10° NNW 03:28:00 52° WSW 03:31:00 10° S
Cosmos 1725 Rocket 4.3 03:21:51 10° SSW 03:28:09 74° W 03:34:29 10° N
ASTRO E2 2.8 03:24:22 10° W 03:28:14 60° S 03:32:05 10° E
Cosmos 1816 Rocket 4.5 03:23:02 10° N 03:29:15 85° E 03:35:22 10° S
Resurs 1-3 4.5 03:26:31 10° SE 03:30:25 33° ENE 03:34:21 10° N
Cosmos 1743 Rocket 4.2 03:26:42 10° NNW 03:31:05 59° W 03:35:24 10° S
Cosmos 1812 4.1 03:27:56 10° SSW 03:31:32 42° W 03:35:10 10° N
USA 238 DEB 4.3 03:27:40 10° NNW 03:34:50 50° NE 03:42:06 11° SE
USA 238 4.4 03:27:47 10° NNW 03:34:57 50° NE 03:42:12 11° SE
Cosmos 1666 Rocket 4.3 03:30:55 10° NNE 03:34:59 35° E 03:39:03 10° SSE
Cosmos 1805 Rocket 3.7 03:31:23 10° N 03:35:50 79° W 03:40:14 10° S
SL-12 R/B (Aux Motor) 4.3 03:32:46 10° SW 03:37:48 61° SSE 03:40:01 10° ENE
Cosmos 44 3.1 03:34:17 10° NNW 03:38:34 66° ENE 03:42:47 11° SE
USA 234 4.2 03:33:10 10° SSE 03:39:20 44° SW 03:45:34 10° NW
Gbstr 26 Del rocket 4.2 03:32:51 10° NW 03:40:22 76° NE 03:46:03 12° SE
SJ 16-02 3.3 03:39:52 10° ESE 03:40:44 11° E 03:41:54 10° E
Okean O Rocket 4.2 03:38:52 10° SW 03:42:03 20° W 03:45:15 10° NW
Cosmos 1633 Rocket 3.7 03:39:48 10° NNE 03:43:50 36° E 03:47:26 12° SE
Cosmos 1697 Rocket 2.7 03:40:30 10° S 03:46:06 66° ESE 03:51:42 10° NNE
H-2A R/B 2.6 03:41:48 10° SSE 03:46:13 90° WSW 03:50:32 10° NNW
CZ-4 R/B 3.7 03:43:14 10° SSW 03:46:28 24° W 03:49:47 10° NW
OAO 3 Rocket 3.4 03:42:39 10° W 03:47:34 77° N 03:52:31 10° E
Cosmos 2360 4.2 03:43:32 10° S 03:49:07 65° ESE 03:54:45 10° NNE
Landsat 7 4.2 03:46:16 11° SE 03:50:30 45° ENE 03:54:59 10° N
Sich 1 3.5 03:48:15 10° NNW 03:52:33 62° W 03:56:47 10° S
Cosmos 1570 Rocket 4.0 03:49:59 10° NNW 03:55:14 70° ENE 03:59:57 13° SSE
Resurs 01 Rocket 2.6 03:53:44 16° SE 03:56:32 30° ENE 04:00:23 10° N
Cosmos 1486 Rocket 4.0 03:52:37 10° S 03:57:52 66° ESE 04:03:06 10° NNE
SJ-6B 3.2 03:54:25 10° S 03:58:13 62° W 04:01:58 10° NNW
Tsikada Rocket 4.2 03:53:19 10° N 03:59:35 74° W 04:05:44 10° S
BREEZE-M DEB (TANK) 4.4 03:55:10 10° WSW 04:00:00 65° NW 04:12:27 10° NE
Cosmos 1814 Rocket 4.1 03:55:24 10° NNW 04:00:31 75° WSW 04:05:38 10° S
Cosmos 2297 Rocket 2.2 03:55:15 10° NNW 04:00:53 68° ENE 04:05:25 16° SSE
Cosmos 1315 Rocket 2.8 03:57:21 10° N 04:01:24 70° E 04:04:40 15° SSE
Cosmos 1515 Rocket 4.0 03:59:00 12° SSE 04:02:39 41° E 04:06:46 10° NNE
ARGOS Delta rocket 4.3 03:59:14 10° NNE 04:04:35 53° E 04:09:46 10° S
Cosmos 1340 3.1 04:03:00 18° SSE 04:05:24 39° E 04:08:54 10° NNE
Cosmos 1184 Rocket 3.6 04:05:15 25° ESE 04:05:42 26° E 04:08:18 10° NE
Cosmos 389 Rocket 4.2 04:03:40 10° NNE 04:06:05 17° ENE 04:06:38 17° E
Cosmos 405 3.5 04:03:26 10° N 04:06:39 38° E 04:08:03 25° SE
ATLAS 5 CENTAUR R/B 3.5 03:54:12 10° W 04:07:20 27° SSW 04:11:26 14° SSE
Okean-O 3.8 04:04:04 10° S 04:08:13 41° W 04:12:24 10° NNW
Meteor 1-10 Rocket 4.4 04:06:22 10° SSW 04:11:53 77° W 04:17:29 10° N
IGS 5A 4.0 04:14:25 11° S 04:18:24 57° W 04:22:29 10° NNW
Cosmos 1743 3.5 04:16:01 10° NNE 04:19:26 32° E 04:20:13 29° ESE
Meteor 1-27 Rocket 3.7 04:16:06 10° S 04:21:48 79° E 04:27:39 10° N
PSLV R/B 4.3 04:18:41 10° N 04:22:40 63° WNW 04:26:38 10° SSW
CZ-4B R/B 1.5 04:20:23 10° N 04:23:32 66° WNW 04:26:11 13° SSW
Cosmos 1503 Rocket 3.9 04:21:48 10° S 04:27:00 71° ESE 04:32:17 10° NNE
ATLAS 2AS CENTAUR R/B 2.9 04:23:32 10° SSW 04:31:14 67° ESE 04:38:52 10° NE
Cosmos 2278 3.9 04:30:19 20° S 04:33:55 47° ESE 04:39:19 10° NNE
SPOT 1/Viking Rocket 3.5 04:34:06 29° SSE 04:36:47 73° ENE 04:41:56 10° N
Cosmos 2219 3.1 04:33:23 10° NNW 04:39:02 85° ENE 04:41:46 32° SSE
H-2A R/B 3.9 04:35:38 10° N 04:39:12 29° WNW 04:42:46 10° SW
Meteor 1-11 Rocket 3.9 04:35:46 10° N 04:41:46 83° W 04:45:33 23° S
Okean 1 3.4 04:44:53 51° ESE 04:45:12 53° E 04:49:07 10° NNE
Cosmos 2082 4.1 04:40:53 10° N 04:46:18 47° ENE 04:48:03 35° ESE
RESURS DK-1 2.2 04:45:24 47° SSE 04:46:21 64° ESE 04:50:25 10° NNE
Cosmos 1536 2.8 04:44:14 10° N 04:48:17 82° W 04:49:23 46° S
Cosmos 1464 Rocket 4.1 04:42:03 10° S 04:48:17 78° W 04:54:28 10° N
Cosmos 2263 Rocket 3.5 04:46:26 10° N 04:50:55 24° ENE 04:52:15 22° E
SL-4 R/B 2.6 04:52:35 10° NW 04:56:56 48° NE 04:57:41 43° ENE
Ariane Rocket 3.1 04:58:25 35° S 05:00:31 69° WSW 05:05:35 10° NNW
CZ-2C R/B 4.0 05:00:50 10° NNE 05:05:24 52° E 05:05:24 52° E
Cosmos 2227 Rocket 3.0 05:02:28 10° NW 05:07:52 46° WSW 05:10:21 29° SSW
ASTRO E2 3.9 05:04:33 10° W 05:07:05 31° SW 05:07:05 31° SW
Cosmos 1092 Rocket 4.3 05:03:21 10° N 05:09:13 44° E 05:10:09 41° ESE
Cosmos 1634 Rocket 4.2 05:08:17 43° ESE 05:09:13 47° E 05:15:06 10° NNE
Cosmos 1933 Rocket 3.9 05:06:19 10° NNW 05:10:44 63° W 05:11:39 50° SW
Nadezhda 4 Rocket 3.9 05:04:34 10° N 05:10:48 85° E 05:12:52 45° S
Cosmos 1980 Rocket 3.2 05:05:27 10° SW 05:10:49 46° WNW 05:16:15 10° N
SPOT 5 3.2 05:13:35 53° ESE 05:14:13 57° ENE 05:19:20 10° N
Gblst 52 Del rocket 4.5 05:10:07 10° SSW 05:17:11 65° SE 05:23:20 10° NE
Helios 1A Rocket 3.0 05:17:41 64° NNE 05:17:41 64° NNE 05:21:13 10° N
Cosmos 1975 4.3 05:14:16 10° NNE 05:16:41 26° NE 05:16:41 26° NE
Meteor 2-14 Rocket 4.3 05:12:15 10° N 05:18:21 82° E 05:19:53 53° SSE
SJ 16-02 2.2 05:16:43 27° SW 05:18:45 47° WNW 05:22:59 10° N
Cosmos 2322 Rocket 3.4 05:20:36 27° ENE 05:20:36 27° ENE 05:23:47 10° NE
Terra 2.5 05:19:10 39° ENE 05:19:10 39° ENE 05:23:21 10° N
Meteor 1-19 Rocket 4.5 05:19:16 31° SSW 05:21:50 63° W 05:27:12 10° N
Meteor 2-4 Rocket 3.7 05:22:05 60° SE 05:22:44 65° E 05:28:23 10° NNE
Milstar 3 Cent rocket 4.4 05:12:03 10° W 05:25:20 32° SW 05:28:23 27° S
Cosmos 783 Rocket 4.4 05:23:40 10° NNW 05:28:52 74° ENE 05:29:00 73° E
Timation 2 Rocket 4.0 05:24:00 10° NNW 05:30:42 89° E 05:32:14 57° SSE
OAO 3 Rocket 3.3 05:26:13 10° W 05:30:38 68° WSW 05:30:38 68° WSW
SPOT 3 Rocket 3.9 05:30:22 48° SW 05:31:18 56° W 05:36:22 10° NNW
Resurs 01 Rocket 3.8 05:31:16 15° WSW 05:33:00 19° W 05:36:07 10° NW
Spot 2 Rocket 3.3 05:34:06 84° SSW 05:34:16 87° WSW 05:39:19 10° NNW
Cosmos 2026 Rocket 3.9 05:29:16 10° N 05:35:26 64° E 05:35:58 61° ESE
Cosmos 773 Rocket 3.9 05:39:09 10° NNW 05:44:13 78° W 05:44:13 78° W
Meteor 2-8 Rocket 4.3 05:48:48 72° SSW 05:49:28 87° W 05:55:35 10° N
Cosmos 921 Rocket 4.5 05:50:51 10° NW 05:54:31 32° W 05:54:31 32° W
Cosmos 1346 Rocket 4.3 05:56:29 35° NNW 05:56:29 35° NNW 05:58:57 10° N
Cosmos 1627 Rocket 4.3 05:48:54 10° N 05:55:10 85° W 05:55:40 77° SSW
SL-16 R/B 2.2 05:57:29 77° W 05:57:36 77° WNW 06:03:18 10° NNE
USA 215 3.1 05:51:53 10° NE 05:58:09 69° ESE 05:58:09 69° ESE
CZ-3 Stage 3 4.4 05:53:44 10° W 05:58:20 27° WSW 05:58:20 27° WSW
USA 81 4.3 06:03:19 63° WNW 06:03:19 63° WNW 06:08:20 10° N
Meteor 2-15 4.5 06:05:01 66° WSW 06:05:30 69° W 06:11:34 10° N
Cosmos 158 Rocket 4.4 06:06:59 10° NNW 06:11:14 59° NW 06:11:14 59° NW
ERS-1 Rocket 3.9 06:12:43 40° W 06:12:43 40° W 06:16:59 10° NNW
Cosmos 2279 Rocket 3.9 06:12:36 81° W 06:12:36 81° W 06:18:49 10° N
ARIANE 5 R/B 3.9 06:15:52 39° NW 06:15:52 39° NW 06:18:53 10° NNW
Cosmos 44 Rocket 4.3 06:10:01 10° NNW 06:13:11 41° N 06:13:11 41° N
Cosmos 2360 Rocket 2.9 06:25:20 45° NNE 06:25:20 45° NNE 06:29:13 10° NNE
Cosmos 2263 Rocket 3.3 06:29:47 10° NW 06:33:56 35° W 06:33:56 35° W
ATLAS CENTAUR R/B 4.2 06:35:40 10° NNE 06:37:56 14° NE 06:37:56 14° NE
ATLAS 3B R/B 2.8 06:48:15 10° NNW 06:55:31 85° N 06:55:31 85° N
Terra 4.2 06:58:03 15° WNW 06:58:03 15° WNW 06:59:50 10° NW
Cosmos 2322 Rocket 3.7 07:02:20 28° WNW 07:02:50 29° WNW 07:07:40 10° N
Cosmos 2333 Rocket 3.2 07:07:35 42° NNE 07:07:35 42° NNE 07:11:15 10° NNE
Cosmos 1844 Rocket 3.7 07:09:27 10° NNW 07:13:07 43° NNW 07:13:07 43° NNW
CZ-4C R/B 4.3 07:18:24 10° NNW 07:25:03 32° NE 07:28:18 25° E
Cosmos 2219 Rocket 3.3 07:29:40 40° N 07:29:40 40° N 07:33:13 10° NNE
ADEOS Rocket 3.7 07:50:02 46° N 07:50:02 46° N 07:54:04 10° N
Cosmos 2237 Rocket 3.7 07:58:41 28° NE 07:58:41 28° NE 08:01:39 10° NE
COSMOS 2428 3.8 08:00:10 41° NNW 08:00:10 41° NNW 08:04:03 10° NNE
USA 267 3.8 08:11:25 51° ENE 08:12:16 54° NE 08:18:36 10° NW
ATLAS CENTAUR R/B 4.1 08:12:49 10° NW 08:13:56 17° NW 08:13:56 17° NW
Resurs 1-4 Rocket 4.4 08:14:30 10° NE 08:16:15 15° ENE 08:16:15 15° ENE
Cosmos 2278 Rocket 3.2 08:28:05 10° N 08:32:36 43° NE 08:32:36 43° NE
Cosmos 2315 Rocket 4.5 08:34:57 55° NE 08:34:57 55° NE 08:40:17 10° NNE
S3M 4.5 08:42:01 55° NW 08:42:01 55° NW 08:47:12 10° N
SL-16 R/B 3.6 08:45:29 30° ENE 08:45:29 30° ENE 08:49:07 10° NE
NOSS 3-1 (A) 4.1 08:40:50 10° NNW 08:48:49 84° ENE 08:50:03 69° SE
NOSS 3-1 (C) 4.5 08:48:34 10° NW 08:55:16 52° W 08:55:16 52° W
COSMOS 2455 4.3 08:57:22 27° E 08:57:22 27° E 09:01:33 10° NE
Meteor 1-24 Rocket 4.4 09:05:48 48° ENE 09:05:48 48° ENE 09:10:20 10° NNE
ATLAS 5 CENTAUR R/B 3.7 08:59:36 10° NW 09:04:57 38° NNW 09:04:57 38° NNW
Meteor 2-10 Rocket 4.2 09:02:23 10° N 09:06:50 55° NNE 09:06:50 55° NNE
Lacrosse 5 2.8 09:14:24 45° NNE 09:14:24 45° NNE 09:18:03 10° NE
CZ-4C R/B 3.2 09:06:20 10° NW 09:13:24 59° W 09:13:24 59° W
Lacrosse 5 rocket 3.7 09:19:29 21° NE 09:19:29 21° NE 09:20:52 10° NE
Meteor 2-5 Rocket 3.9 09:27:59 69° NNW 09:27:59 69° NNW 09:33:01 10° N
CZ-2D R/B 2.4 09:24:26 10° NNE 09:29:03 66° NNE 09:29:03 66° NNE
Cosmos 2237 Rocket 3.8 09:40:29 22° WNW 09:40:29 22° WNW 09:44:54 10° N
Resurs 1-4 Rocket 2.5 09:52:37 10° N 09:57:19 49° WNW 09:57:19 49° WNW
Cosmos 292 Rocket 3.8 10:00:36 74° NE 10:00:36 74° NE 10:05:02 10° NNE
SL-16 R/B 2.4 10:00:08 59° SSE 10:01:27 89° WSW 10:07:42 10° NNW
Cosmos 1943 Rocket 2.3 09:59:04 10° NNW 10:04:46 74° ENE 10:06:33 45° SE
Cosmos 2297 4.2 10:01:08 10° NNW 10:06:49 59° ENE 10:10:28 22° SE
Cosmos 2228 4.5 10:05:53 10° NNE 10:09:50 33° E 10:11:19 26° ESE
ADEOS II 1.9 10:07:44 10° N 10:12:58 73° WNW 10:13:19 70° WSW
Cosmos 1536 Rocket 3.9 10:13:47 56° NW 10:13:47 56° NW 10:17:28 10° N
IDEFIX/ARIANE 42P 2.4 10:08:00 10° NNE 10:13:17 89° WNW 10:13:52 72° SSW
Cosmos 2074 Rocket 4.0 10:09:53 10° NNW 10:16:07 67° W 10:17:15 56° SW
OAO 2 Rocket 3.7 10:16:57 49° SE 10:16:57 49° SE 10:21:11 10° E
Cosmos 2278 Rocket 4.2 10:13:15 10° NW 10:14:24 14° WNW 10:14:24 14° WNW
Cosmos 1455 3.7 10:19:11 10° NNW 10:21:06 28° NNW 10:21:06 28° NNW
Cosmos 1295 Rocket 4.5 10:17:02 10° N 10:23:25 88° E 10:26:12 36° S
NOSS 3-3 (A) 3.6 10:23:18 58° SSW 10:24:27 82° ESE 10:30:32 10° NNE
NOSS 3-3 (C) 3.6 10:23:24 58° SSW 10:24:33 81° ESE 10:30:38 10° NNE
Cosmos 614 Rocket 4.1 10:19:56 10° NNW 10:25:08 72° ENE 10:27:52 28° SSE
Meteor 1-21 Rocket 4.3 10:23:46 42° SSE 10:25:40 71° E 10:31:14 10° NNE
Cosmos 1271 Rocket 2.8 10:24:13 10° N 10:27:50 75° NNE 10:27:50 75° NNE
SL-16 R/B 3.4 10:27:21 27° WNW 10:28:08 28° WNW 10:32:57 10° N
IRS-1D 3.6 10:23:21 10° NNE 10:28:41 74° ESE 10:30:15 46° S
UNK 4.2 10:30:44 44° WNW 10:30:44 44° WNW 10:34:31 10° NNW
DNEPR-1 R/B 3.5 10:29:53 66° SE 10:30:06 68° ESE 10:34:27 10° NE
Cosmos 2251 Rocket 4.5 10:25:16 10° N 10:30:20 46° ENE 10:35:23 10° SE
Cosmos 2369 Rocket 3.2 10:26:01 10° N 10:31:21 44° ENE 10:36:39 10° SE
Cosmos 2184 Rocket 4.2 10:25:22 10° NNW 10:31:22 50° W 10:32:27 45° WSW
Cosmos 1610 Rocket 4.3 10:28:46 10° N 10:34:54 77° W 10:37:27 37° S
COSMOS 2441 4.2 10:32:57 10° N 10:37:49 86° WNW 10:38:59 53° SSW
MOS 1 Rocket 3.8 10:39:45 37° WNW 10:39:45 37° WNW 10:43:01 10° NNW
COSMOS 2455 3.6 10:40:30 32° W 10:42:13 38° WNW 10:47:50 10° N
Cosmos 1606 Rocket 4.2 10:38:21 10° N 10:42:39 53° E 10:45:25 20° SSE
Cosmos 2181 Rocket 4.3 10:42:09 19° SSE 10:46:37 63° E 10:52:42 10° NNE
Helios 1B rocket 2.9 10:44:42 10° NNE 10:48:41 55° E 10:50:15 33° SSE
Cosmos 962 Rocket 4.4 10:43:28 10° N 10:49:37 83° E 10:54:49 15° S
Cosmos 1328 3.7 10:49:40 57° S 10:50:26 89° E 10:54:25 10° N
Cosmos 1603 3.6 10:49:16 39° SSW 10:51:28 82° WNW 10:57:09 10° NNE
ALOS 3.6 10:48:50 10° NNE 10:53:09 36° E 10:56:51 13° SSE
Helios 1A 3.4 10:56:14 41° W 10:56:14 41° W 11:00:10 10° NNW
Lacrosse 5 rocket 3.8 10:55:18 10° NW 10:56:34 11° NNW 10:57:51 10° NNW
Lacrosse 5 4.2 10:54:19 10° WNW 10:56:46 13° NNW 10:59:12 10° N
MOS 1-B Rocket 4.4 10:51:24 10° SSE 10:56:54 56° ENE 11:02:26 10° N
CZ-2C R/B 3.4 10:54:58 10° NNE 10:59:48 43° E 11:04:04 12° SSE
MSX 4.3 10:55:59 10° N 11:01:24 43° WNW 11:03:41 30° WSW
Chunghua 1 4.3 11:01:47 45° WNW 11:02:47 83° N 11:06:20 10° E
Lacrosse 4 Rocket 2.9 11:03:46 15° SSE 11:06:40 32° ESE 11:10:28 10° NE
CZ-2D R/B 4.3 11:07:57 10° NW 11:09:02 11° WNW 11:10:07 10° WNW
Cosmos 1892 Rocket 3.6 11:10:34 31° SSW 11:12:37 66° W 11:17:04 10° N
Cosmos 1371 Rocket 3.9 11:10:42 25° SSW 11:13:43 84° WNW 11:18:55 10° NNE
GPS 2-04 Rocket1 2.2 11:12:57 44° WSW 11:13:55 83° SSE 11:17:27 10° ENE
Cosmos 1825 4.0 11:11:45 10° SSE 11:14:57 28° E 11:18:10 10° NNE
Cosmos 407 Rocket 3.8 11:11:35 10° NNW 11:16:53 70° ENE 11:22:05 10° SSE
Meteor 1-11 4.2 11:16:50 16° S 11:21:35 84° W 11:27:24 10° N
Cosmos 1726 Rocket 3.5 11:17:43 10° NNW 11:22:05 66° W 11:25:45 14° S
Cosmos 1943 3.9 11:19:48 23° WSW 11:22:40 38° WNW 11:27:58 10° N
BREEZE-M DEB (TANK) 4.4 11:20:17 15° W 11:23:13 25° NW 11:25:36 10° NNE
[s.n.52708] 4.0 11:24:35 25° WNW 11:25:20 28° NW 11:27:51 10° NNE
[s.n.52707] 4.0 11:24:42 24° WNW 11:25:28 28° NW 11:27:58 10° NNE
[s.n.52703] 4.0 11:24:49 24° WNW 11:25:35 28° NW 11:28:05 10° NNE
[s.n.52705] 4.0 11:24:55 24° WNW 11:25:41 28° NW 11:28:12 10° NNE
[s.n.52706] 4.0 11:25:02 24° WNW 11:25:48 28° NW 11:28:19 10° NNE
[s.n.52701] 4.0 11:25:09 24° WNW 11:25:55 28° NW 11:28:26 10° NNE
[s.n.52704] 4.0 11:25:16 24° WNW 11:26:02 28° NW 11:28:33 10° NNE
[s.n.52699] 4.0 11:25:23 24° WNW 11:26:10 28° NW 11:28:40 10° NNE
[s.n.52702] 4.0 11:25:29 24° WNW 11:26:17 28° NW 11:28:47 10° NNE
[s.n.52697] 4.0 11:25:36 24° WNW 11:26:24 28° NW 11:28:54 10° NNE
[s.n.52700] 4.0 11:25:43 24° WNW 11:26:30 28° NW 11:29:01 10° NNE
[s.n.52695] 4.0 11:25:50 23° WNW 11:26:38 28° NW 11:29:08 10° NNE
Meteor 2-1 Rocket 4.3 11:21:08 10° NNW 11:26:42 56° W 11:32:09 10° S
[s.n.52698] 4.0 11:25:56 23° WNW 11:26:45 28° NW 11:29:15 10° NNE
Cosmos 1140 Rocket 3.5 11:21:34 10° NNW 11:26:51 88° WSW 11:32:04 10° SSE
[s.n.52693] 4.0 11:26:03 23° WNW 11:26:53 27° NW 11:29:23 10° NNE
[s.n.52696] 4.1 11:26:10 23° WNW 11:26:59 27° NW 11:29:29 10° NNE
[s.n.52691] 4.1 11:26:17 23° WNW 11:27:06 27° NW 11:29:36 10° NNE
[s.n.52689] 4.1 11:26:24 23° WNW 11:27:14 27° NW 11:29:44 10° NNE
[s.n.52694] 4.1 11:26:31 23° WNW 11:27:21 27° NW 11:29:50 10° NNE
[s.n.52692] 4.1 11:26:38 23° WNW 11:27:28 27° NW 11:29:57 10° NNE
[s.n.52687] 4.1 11:26:44 23° WNW 11:27:35 27° NW 11:30:04 10° NNE
[s.n.52685] 4.1 11:26:51 23° WNW 11:27:42 27° NW 11:30:11 10° NNE
[s.n.52690] 4.1 11:26:58 23° WNW 11:27:49 27° NW 11:30:19 10° NNE
[s.n.52688] 4.1 11:27:05 22° WNW 11:27:56 27° NW 11:30:26 10° NNE
[s.n.52683] 4.1 11:27:12 22° WNW 11:28:04 27° NW 11:30:33 10° NNE
[s.n.52686] 4.1 11:27:19 22° WNW 11:28:11 27° NW 11:30:40 10° NNE
[s.n.52681] 4.1 11:27:26 22° WNW 11:28:19 27° NW 11:30:47 10° NNE
[s.n.52679] 4.1 11:27:33 22° WNW 11:28:26 26° NW 11:30:54 10° NNE
[s.n.52684] 4.1 11:27:40 22° WNW 11:28:33 26° NW 11:31:02 10° NNE
[s.n.52682] 4.1 11:27:46 22° WNW 11:28:40 26° NW 11:31:08 10° NNE
[s.n.52677] 4.1 11:27:53 22° WNW 11:28:48 26° NW 11:31:16 10° NNE
[s.n.52680] 4.1 11:28:01 22° WNW 11:28:55 26° NW 11:31:23 10° NNE
[s.n.52675] 4.1 11:28:07 22° WNW 11:29:02 26° NW 11:31:30 10° NNE
[s.n.52678] 4.1 11:28:14 22° WNW 11:29:09 26° NW 11:31:37 10° NNE
[s.n.52673] 4.2 11:28:22 21° WNW 11:29:17 26° NW 11:31:45 10° NNE
[s.n.52676] 4.2 11:28:29 21° WNW 11:29:24 26° NW 11:31:52 10° NNE
[s.n.52671] 4.2 11:28:37 21° WNW 11:29:32 26° NW 11:32:00 10° NNE
[s.n.52669] 4.2 11:28:44 21° WNW 11:29:40 26° NW 11:32:06 10° NNE
[s.n.52674] 4.2 11:28:50 21° WNW 11:29:47 26° NW 11:32:14 10° NNE
[s.n.52672] 4.2 11:28:56 21° WNW 11:29:53 26° NW 11:32:21 10° NNE
[s.n.52667] 4.2 11:29:05 21° WNW 11:30:02 25° NW 11:32:28 10° NNE
[s.n.52665] 4.2 11:29:11 21° WNW 11:30:09 25° NW 11:32:36 10° NNE
[s.n.52670] 4.2 11:29:18 21° WNW 11:30:16 25° NW 11:32:43 10° NNE
[s.n.52668] 4.2 11:29:26 21° WNW 11:30:23 25° NW 11:32:50 10° NNE
[s.n.52666] 4.2 11:29:33 21° WNW 11:30:31 25° NW 11:32:58 10° NNE
[s.n.52663] 4.2 11:29:40 20° WNW 11:30:39 25° NW 11:33:05 10° NNE
[s.n.52662] 4.2 11:29:47 20° WNW 11:30:46 25° NW 11:33:12 10° NNE
[s.n.52664] 4.2 11:29:54 20° WNW 11:30:53 25° NW 11:33:20 10° NNE
[s.n.52661] 4.2 11:30:02 20° WNW 11:31:02 25° NW 11:33:27 10° NNE
[s.n.52660] 4.2 11:30:08 20° WNW 11:31:08 25° NW 11:33:34 10° NNE
SeaSat 1 2.9 11:26:19 10° NNE 11:31:11 60° ESE 11:35:57 10° SSW
[s.n.52656] 4.2 11:30:16 20° WNW 11:31:16 25° NW 11:33:41 10° NNE
[s.n.52658] 4.2 11:30:23 20° WNW 11:31:24 25° NW 11:33:50 10° NNE
[s.n.52659] 4.2 11:30:30 20° WNW 11:31:31 25° NW 11:33:56 10° NNE
[s.n.52657] 4.3 11:30:38 20° WNW 11:31:39 24° NW 11:34:04 10° NNE
Cosmos 1892 2.6 11:29:36 18° SSW 11:32:16 73° W 11:36:03 10° N
Cosmos 2366 rocket 3.9 11:27:04 10° N 11:33:14 76° W 11:39:25 10° S
Cosmos 1484 Rocket 4.5 11:29:52 10° NNE 11:33:22 32° E 11:36:53 10° SSE
BREEZE-M DEB (TANK) 3.6 11:32:30 21° W 11:34:22 52° NNW 11:41:49 10° NE
Cosmos 2341 Rocket 4.3 11:28:43 10° NNW 11:34:49 49° W 11:40:54 10° SSW
SL-24 DEB 4.4 11:30:50 11° S 11:35:16 57° W 11:39:55 10° NNW
SL-8 Rocket 4.2 11:34:07 10° NNW 11:40:14 54° W 11:46:19 10° SSW
IRS-1C 4.1 11:35:25 10° N 11:40:44 71° WNW 11:46:02 10° SSW
Cosmos 1408 3.0 11:38:52 20° SW 11:41:05 43° W 11:44:34 10° N
DELTA 2 DEB (DPAF) 4.2 11:42:45 10° SSE 11:47:10 86° ENE 11:51:36 10° NNW
Cosmos 1943 Rocket 4.0 11:46:01 10° W 11:47:44 11° W 11:47:58 11° W
FENGYUN 3A 4.0 11:43:06 10° N 11:48:16 48° WNW 11:53:14 11° SW
Cosmos 2263 4.4 11:45:40 10° NNW 11:51:09 50° WSW 11:56:39 10° S
ARIANE 5 R/B 2.5 11:47:29 10° N 11:52:28 64° WNW 11:57:23 10° SSW
